Flag for Switzerland Weather past 2 weeks in Spiez, Bern, Switzerland

Now
50 °F

Cool.


Feels Like: 50 °F
Forecast: 41 / 70 °F
Wind: 2 mph from East

Location: Interlaken

Current Time: May 23, 2015 at 10:21:55 AM

Latest Report: May 23, 2015 at 9:00 AM


Visibility: N/A

Pressure: 30.08 "Hg

Humidity: 80%

Dew point: 44 °F

Location of SpiezLocation

Historic Weather in Spiez — Graph

°F

Spiez temperature yesterday

Maximum temperature yesterday: 54 °F (at 4:00 PM)
Minimum temperature yesterday: 44 °F (at 2:00 AM)
Average temperature yesterday: 49 °F

Past Weeks' High & Low Weather Summary

 TemperatureHumidityPressure
High81 °F (May 12, 3:00 PM)98% (May 9, 7:00 AM)30.38 "Hg (May 9, 7:00 AM)
Low33 °F (May 15, 5:00 PM)32% (May 12, 3:00 PM)29.70 "Hg (May 18, 6:00 PM)
Average56 °F73%30.10 "Hg
* Reported May 8 9:00 AM — May 23 9:00 AM, Spiez, Weather by CustomWeather, © 2015

Note: Actual official high and low records may vary slightly from our data, if they occured in-between our weather recording intervals... More about our weather records

Advertising

Spiez weather history for previous 24 hours

 ConditionsComfort  
Time TempWeatherWind HumidityBarometerVisibility
9:00 AM
Sat, May 23
50 °FCool.2 mph80%30.08 "HgN/A
8:00 AM47 °FCool.No wind86%30.09 "HgN/A
7:00 AM45 °FQuite cool.1 mph92%30.09 "HgN/A
6:00 AM44 °FQuite cool.No wind93%30.10 "HgN/A
4:00 AM44 °FQuite cool.No wind90%30.11 "HgN/A
3:00 AM47 °FCool.3 mph84%30.11 "HgN/A
2:00 AM47 °FCool.5 mph84%30.12 "HgN/A
1:00 AM48 °FCool.5 mph83%30.14 "HgN/A
12:00 AM48 °FCool.1 mph84%30.15 "HgN/A
10:00 PM
Fri, May 22
49 °FCool.5 mph80%30.16 "HgN/A
9:00 PM50 °FCool.5 mph77%30.16 "HgN/A
8:00 PM51 °FCool.3 mph78%30.16 "HgN/A
7:00 PM53 °FCool.2 mph75%30.15 "HgN/A
6:00 PM54 °FCool.2 mph70%30.16 "HgN/A
5:00 PM54 °FCool.No wind64%30.17 "HgN/A
4:00 PM54 °FCool.2 mph62%30.18 "HgN/A
3:00 PM54 °FCool.1 mph61%30.19 "HgN/A
2:00 PM53 °FCool.No wind66%30.20 "HgN/A
1:00 PM54 °FCool.5 mph67%30.21 "HgN/A
12:00 PM52 °FCool.2 mph73%30.23 "HgN/A
11:00 AM50 °FCool.2 mph76%30.24 "HgN/A
10:00 AM49 °FCool.1 mph80%30.26 "HgN/A
Weather by CustomWeather, © 2015

See weather overviewHow to use our weather pages